Please Login or Sign Up

All Events

You are viewing ALL events starting from the newest to the oldest.  Use the Search Filters to narrow your search by event text, location and/or category.  Past events with online searchable results will be shown with the "Results" badge.

Select a category:
Type name, city, etc.
CC Logo.jpg
Butler Cross Country Meet
Download as iCal file
Saturday, October 07, 2023, 08:30am

Butler Field House Butler, MO

High School and Middle School Cross Country Meet

Event Organizer(s):

Results (Final)


Butler Cross Country Meet

2023-10-07 10:33:53
 

VG Age Group Results for High School Girls

RankBibName FinishPaceAgeGenderCityState
1102ELIZABETH KURTZ00:19:24.9586:1511F
2100ADELAIDE HYDEMAN00:19:26.3146:1610F
3104EILEY NICHOLL00:19:31.1656:179F
498MIRABEL BUCHER00:19:31.7046:179F
5107ISABELLE WOOD00:19:33.5936:1810F
6195BROOKE BECK00:19:48.4946:2311F
7101BRITTA HYDEMAN00:20:49.4556:439F
8149CAROLINE LINDERMAN00:21:06.1136:4810F
9146AMELIA CRAIG00:21:09.6746:4910F
10105ELEANOR SCHLOTFELDT00:21:11.8706:5010F
1199ABBY HAYES00:21:12.1316:5011F
12103GRACE KURTZ00:21:22.2476:539F
13115VYLA BROWN00:21:22.8826:5311F
14106EDEN SULLIVAN00:21:24.1196:5412F
15249LUCIE EPEMA00:21:28.1226:5511F
16162KATE WAREHAM00:21:45.1107:019F
17196ELLIE BECK00:21:55.9867:0412F
18177BRYNLEY HEDGES00:22:26.3887:149F
19253MARINA PARKS00:22:51.6257:2212F
2023ASHLEY JARA ESCALANTE00:23:02.2007:2511F
21252ODEYLA KINA00:23:06.2787:2712F
22161KELSEY CARTER00:23:22.8867:3210F
23150LIZZY MAHNKEN00:23:33.4777:3512F
24118ALEXA MCCARTNEY00:23:48.6667:4011F
25197LILLIAN BROCK00:23:55.8917:4310F
26254ABIGAIL SHANAHAN00:24:12.7697:4811F
27306MACY PEARSON00:24:12.7937:4810F
28229ELLA TURNER00:24:13.5927:4810F
29226KAITLYN SACKETT00:24:21.6007:5112F
30227HARLEIGH SCHMIDT00:24:28.6097:539F
31119SARAH MENDENHALL00:24:30.8127:5412F
3234CADENCE TURNEY00:24:37.3537:5612F
33308ALYSSA ROBERTS00:24:41.0877:5710F
3430OLIVIA DOWELL00:24:41.5037:5711F
3527SYDNEY STIFTER00:24:48.3778:0010F
36250BROOKELYN HESS00:24:57.6238:0312F
37194WRIGLEY ANDERSON00:24:58.7448:0311F
3821VIOLET CLUTTER00:24:59.4948:0310F
39230EMILY WINNAT00:25:01.6508:0410F
40178MARY-KATE RUSSELL00:25:15.4108:0811F
4125KATIXA LASCARAY00:25:17.2588:0912F
42198ALEXIS BROTHERTON00:25:19.3598:1011F
4324RYLEE JONES00:25:26.9878:1211F
4432JAYLIE STARKEY00:25:44.7418:1810F
45288JASMIN MEYERS00:25:47.4498:199F
46228CHLOE TAYLOR00:25:55.9998:2110F
47116KATRINNA COLE00:26:05.1388:2410F
48212KIRSTEN HARDIN00:26:10.0548:2612F
49152SAMANTHA NG'ANG'A00:26:19.3278:2911F
50200LAUREN WEISS00:26:28.9178:3212F
51213SYDNEY RICE00:26:53.3188:4012F
52147ADDISON GROSSENBACHER00:28:00.6619:0210F
53176FAITH BARNES00:28:07.3429:0411F
5431NATALEE KENNEDY00:30:40.9009:539F
55309IVY RUSK00:32:04.73010:2010F
56287MAYA DAUGHENBAUGH00:32:55.99110:379F
57148LILIANA HODGES00:34:11.85411:0111F
58305SOPHIE KENIG00:34:40.63011:1111F
5933MORGAN STUMP00:38:13.94912:199F
 

VB Age Group Results for High School Boys

RankBibName FinishPaceAgeGenderCityState
128BRANDON HAMMETT00:16:49.1725:2510M
288RYAN BRETHOUR00:17:06.4215:3112M
390ISAAC FAGAN00:17:06.4695:3112M
489SAMUEL BURKETT00:17:31.1865:3912M
5144DAVID REIMER00:17:38.3585:4112M
6142GRAHAM NORD00:17:42.9755:429M
719LANDIN KUNSCH00:17:47.4325:4411M
8207BRENDAN SANTELLAN00:17:51.0185:4510M
9247MARCUS VERBRUGGE00:17:55.4105:4611M
1015LEVI BOTTCHER00:17:56.5185:4710M
1194WALTER SCHLEF00:18:01.5465:489M
12129LELAND HARRIS00:18:09.9545:5111M
13220CONNOR BAILEY00:18:18.1525:5412M
14175SHAITYN WILLIAMS00:18:23.4255:5511M
1591WILLIAM GARBERG00:18:30.2365:5811M
16279JAXSON DECKARD00:18:31.1755:5811M
1792SAMUEL KING00:18:33.5565:5912M
18173AIDAN RYAN00:18:35.4145:5911M
19143WYATT NORD00:18:37.5576:0012M
20157CARSON ROHAUS00:18:40.0556:0112M
21139REX LYLE00:18:42.5966:0212M
22209BRAYDEN CHANDLER00:18:48.0396:0312M
23281WESLEY JACKSON00:18:51.4166:0410M
24171MONTGOMERY GUMMY PALMER00:18:54.8086:0611M
25174AIDEN WATTS00:19:00.0816:0711M
26140JACK MALONE00:19:03.1316:0810M
2796GABRIEL TRAUB00:19:04.0896:0912M
2893SAMUEL RICHARDSON00:19:06.3556:0910M
2918AARON GORSAGE00:19:06.9116:0911M
3095CARTER SEARS00:19:07.3946:1012M
31170LANE JONES00:19:15.3616:1212M
321CADE CALLAHAN00:19:16.2006:1212M
33172ANTHONY PIZZANO00:19:21.1106:1411M
34169RYLAN HEDGES00:19:24.0046:1512M
35141CANADY MITCHEM00:19:28.5286:1612M
36206SILAS POWELL00:19:33.6026:1810M
3717NORMAN EAGLETON00:19:33.6776:1811M
38145CHRISTOPHER REIMER00:19:34.0356:1811M
39130LINCOLN MOSS00:19:36.0296:1911M
40204ISLEM GOLDEN-TUBBY00:19:37.2756:1911M
41159CARSON STEWARD00:19:39.2936:209M
42225DUSTIN VAUGHAN00:19:40.2616:2012M
43246RYAN SARE00:19:40.7486:2010M
44112GAGE ROSS00:19:55.1556:2512M
45113COLTON ROSS-VARNER00:19:56.2756:259M
4620OLIVER SISEMORE00:20:00.4106:2710M
47155SETH ENGEMAN00:20:03.8396:2810M
48242JULEAN MCGREGOR00:20:09.7266:3011M
49240ISAAC BELTRAN00:20:13.0756:319M
50192PEYTON MADISON00:20:13.2976:3111M
51243MATTHIAS MCGREGOR00:20:14.0886:319M
52158COLT SCOTTEN00:20:19.1546:339M
53244BRAYDEN OLDHAM00:20:24.0186:3410M
54210CAISEN GWINN00:20:26.9716:359M
55156KEON ENGEMAN00:20:28.3316:3612M
56248JACKSON YOUNG00:20:38.8096:3911M
57222DENVER HALL00:20:45.0226:4111M
58193HYCLE NOLAND00:20:45.2546:4111M
59154NATE BAILEY00:20:50.0456:4312M
602LUCAS CRUMP00:20:53.6156:4411M
61131AUSTIN MOSS00:21:04.9016:489M
62188MASON AMADOR00:21:14.1836:5111M
63109KOLE JOHNSON00:21:22.3156:5312M
64205ANDERSEN HOWARD00:21:22.6526:5311M
6529KENNY WARING00:21:30.6136:5611M
6616JOAQUIN CORTEZ00:21:33.7426:5710M
67108ETHAN JOHNS00:21:36.5896:5810M
68277HENRY BRESHEARS00:21:40.4946:5910M
69236DANIEL CHAE00:21:47.8047:0110M
70160BLAKE WAREHAM00:21:50.2317:0212M
71203CARSON MCKINLEY00:21:52.1427:0311M
72190CARTER HODSON00:21:52.4647:0311M
73110AUSTIN JOHNSON00:22:12.4487:099M
74224OTIS SPRING00:22:36.1037:1710M
75189CLAYTON GENTRY00:22:56.2517:239M
76303ZANE HOPPERS00:23:12.6467:299M
77111NOAH MURPHY00:23:21.3497:3210M
78221ELI BOULWARE00:23:23.2577:329M
79191QIFA HUANG00:23:46.9257:4011M
80237JONATHAN DIMITRIADIS00:23:50.4807:419M
81280BRAYDEN HENDERSON00:25:02.2158:0410M
82223CJ SCHMOLL00:30:20.2009:4712M
 

JVG Age Group Results for High School Girls

RankBibName FinishPaceAgeGenderCityState
180JANNAH ROBERTS00:21:50.4977:029F
263GLORIA CHANG00:22:30.8347:1512F
374JOSIE MCCLUNG00:22:56.6807:2412F
481RACHEL ROBERTSON00:23:14.0917:299F
576SAMANTHA MOWEN00:23:17.9957:309F
672LILY MARTIN00:23:31.9937:3510F
787DANIELLE VISS00:23:48.5747:409F
871HANNAH MARKMAN00:23:57.2197:4312F
982KATIE SCHLEMEIER00:24:03.7747:459F
1064ANNA CHANG00:24:05.7937:469F
1184ALLEGRA SULLIVAN00:24:12.6817:4811F
1266HATTIE DEAN00:24:57.5278:039F
1378BRIDGET O'HEARN00:25:36.8198:1510F
1465ANNA CHAVERIN00:26:08.0298:2512F
1586ANNAKA VAN RHEE00:26:08.2598:259F
1662LEXI CARTWRIGHT00:26:22.0738:3011F
1773CECILIA MCCABE00:27:04.4268:449F
1867CAMILLE ENDERBY00:27:07.3658:449F
1913WRENNA NEUMAN00:28:14.0809:069F
2012RYLEE MEREDITH00:28:21.7299:0812F
2177CHEYENNE MOWEN00:29:03.4049:2211F
2269PAYTEN HOLLEY00:29:16.4839:2610F
239KELSIE GIACONE00:30:34.5619:5110F
2470SOPHIE HOWARD00:30:37.1349:5212F
2511KATELYNN LABBE00:31:43.55410:1410F
2675SOPHIA MIDDLETON00:32:50.69510:3510F
2783CALLEIGH SMITH00:33:06.49410:4010F
288ALEXUS DUNLAP00:36:51.80511:5310F
2968ELLA HANSON00:37:48.25112:119F
 

JVB Age Group Results for High School Boys

RankBibName FinishPaceAgeGenderCityState
158CHRISTOPHER SWYGARD00:19:55.3206:2510M
248MATTHEW HOOPER00:20:06.9286:2910M
354CHASE PERICO00:20:14.4416:319M
4168ASHER MOSHER00:20:24.1926:3410M
5137ALEC MCDONALD00:20:27.4796:3511M
6136NOLAN HIZER00:20:52.2216:439M
760ASHER WINSLOW00:21:02.6606:4710M
8135JOEL ADA00:21:09.8536:4910M
953CHARLIE MOORE00:21:11.8126:509M
1056MAKSIM SCHLEF00:21:12.8636:509M
1155BRAYDEN RUTTEN00:21:16.2716:519M
12166STEVEN LYON00:21:18.2106:5211M
13132MATTHEW RUCKER00:21:41.4496:599M
1451JACK KNUTSON00:22:07.6287:0810M
15153MATTHEW ENGEMAN00:22:21.4627:129M
1649SAMUEL HORTON00:22:23.1637:1312M
1747JAMES HARTTER00:22:23.4617:139M
18201CONNOR BRYANT00:22:33.9667:1611M
196ANDREW HOOPER00:22:34.1177:1611M
20138QUAN SUN00:22:41.8217:1911M
21202CHRISTIAN CERECEDO00:22:48.9347:2110M
2259JACKSON WEATHERFORD00:22:55.4207:2310M
2357PATRICK SHIPMAN00:23:12.2247:299M
247ANSH PATEL00:23:36.4937:369M
25167JACKSON MCGRAW00:23:43.0107:399M
2652BENJAMIN LOBDELL00:24:04.5947:4512M
274BRANTON CHRISTY00:24:32.8617:5512M
2850EVAN JOHNSON00:27:06.5708:4410M
295AIDYN DUNLAP00:31:24.40710:079M
 

MSG Age Group Results for Middle School Girls

RankBibName FinishPaceAgeGenderCityState
1312TEAGEN DECAVELLE00:13:16.9186:386F
242CATHERINE COOK00:13:28.6126:446F
3183TESSA HARDIN00:13:50.1436:558F
4271KATE MONTGOMERY00:14:23.5897:118F
5235RILEY LEHMAN00:14:26.5167:138F
6269MAGGIE DALY00:14:51.1867:257F
7234ALLISON CRUST00:14:51.9187:258F
8267CHLOE CONSTANT00:14:55.8357:278F
9164LAUREN BAILEY00:14:56.0067:287F
10301CHLOE YODER00:15:24.1337:427F
11296KAYLEE JACKSON00:16:09.3448:048F
12233ADDISON BRADFORD00:16:17.7328:087F
13125JESSICA MOLDER00:16:35.1438:178F
14219LILY TALBOTT00:16:39.5598:196F
1546ERICA WILBERS00:16:41.7148:206F
1645LUISA SANCHEZ00:16:46.3188:236F
17276MAKAYLA ZICARI00:17:00.8858:307F
18184KENLIE HERRELL00:17:17.3628:386F
19187MANDOLIN MOSHER00:17:21.1718:406F
20272MARIALICE PASZKIEWICZ00:17:34.9058:477F
2143ASHLEY COX00:17:42.8198:516F
22313LILEE MINZES00:18:13.5189:068F
23297ARABELLA MITCHELL00:19:14.8829:376F
24294JAYLYNN COLLINS00:19:34.5509:477F
25266BRIANA ACOSTA00:19:45.5779:527F
2644CHLOE POLAND00:19:56.7549:586F
27185MORGAN LEMASTERS00:20:02.94210:016F
28126FANNIE PETTIT00:20:16.40510:088F
29300EMILY WITT00:20:28.03410:147F
30298ANJALIE MURDOCK00:20:49.82810:246F
 

MSB Age Group Results for Middle School Boys

RankBibName FinishPaceAgeGenderCityState
1256LEO BUTLER00:12:03.0846:018M
236HAYDEN DICKENS00:12:37.2476:187M
3214MIRACLE BOL-CASE00:12:39.1106:198M
4255TRUMAN AITKENS00:12:49.6216:248M
5217KAIDEN FRY00:13:05.3616:327M
6262CARSON SHRUM00:13:11.1826:357M
7264JACK WHEELER00:13:25.6886:427M
8310TRAYCE DECAVELLE00:13:27.0426:438M
9258NEYLAN FOSTER00:13:34.4176:478M
10179ELI GAGNON00:13:35.5926:478M
1126HUNTER BOLSER00:13:46.5146:536M
12231ADAM HOLT00:13:51.7326:558M
1339GUNNER MCSPERITT00:13:54.2336:576M
14127PHINNEAS MANKO00:13:56.3366:588M
15180ANDREW RUSSELL00:14:01.8987:008M
16216JOHN FLETCHER00:14:09.3487:047M
17232MARK NIEMERG00:14:09.5517:048M
18260MAKAE REASONER00:14:13.5777:067M
19120BLAKE DESBIEN00:14:19.8847:097M
20257KAELAN D'ENTREMONT00:14:25.2537:128M
21133CASH RUCKER00:14:25.3737:128M
2235BRENNDEN BALL00:14:54.8707:277M
23215THOMAS FEILD00:15:07.0027:337M
24163HADLEY CARTER00:15:11.9217:357M
25289BRODY BOGGS00:15:37.3277:488M
26261ELIJAH SANDERS00:15:40.6317:507M
27293JOSHUA SMITH00:15:56.3337:588M
2837MAYSON FOSS00:15:59.6597:596M
29263NOLAN SMITH00:16:02.5208:017M
30292ROMAN SABELLA00:16:06.7598:038M
31123ANDREW HARP00:16:12.5738:067M
32122CHARLES FIELDS00:16:27.7308:136M
33134MAX TUCKER00:16:41.7258:208M
34121TREVOR FIELDS00:17:01.4358:308M
35181ASHTON THANKAMANI00:17:21.0288:406M
36265JOSIAH ZICARI00:17:49.3798:547M
373IAN BERGMAN00:18:08.6989:046M
38311WILLIAM GORDAN00:18:13.8209:068M
39259BROOKS PHILIPSHECK00:18:26.6329:137M
40124PAYTON PULCINI00:18:30.5489:157M
4140LUKE WARFIELD00:19:18.0489:396M
(Event 900,839)